Yakima, WA
on Monday, November 26, 2012

Monday
Previous Day Next Day
Daily Summary
 ActualAverageRecord
Temperature
Mean Temperature °F 33°F  
Max Temperature 44°F 42°F 64°F (1949)
Min Temperature 21°F 24°F -5°F (1985)
Degree Days
Heating Degree Days 32 32  
Month to date heating degree days 584 700  
Since 1 July heating degree days 1121 1404  
Cooling Degree Days 0 0  
Month to date cooling degree days 0 0  
Year to date cooling degree days 667 472  
Moisture
Dew Point 26°F   
Average Humidity 71    
Maximum Humidity 88    
Minimum Humidity 53    
Precipitation
Precipitation 0.00 in 0.04 in 1.03 in (1955)
Month to date precipitation 0.58 0.88  
Year to date precipitation 7.11 6.55  
Snow
Snow 0.00 in 0.30 in 4.40 in (1955)
Month to date snowfall 0.8 2.6  
Year to date snowfall 22.3 11.3  
Since 1 July snowfall 0.8 2.7  
Snow Depth 0.00 in   
Wind
Wind Speed 5 mph   
Max Wind Speed 23 mph   
Max Gust Speed 25 mph   
Visibility 9 miles   
Events     

Key: T is trace of precipitation, MM is missing value
Source: NWS Daily Summary
Time(PST)TemperatureDew PointHumidity Pressure Visibility Wind DirectionWind SpeedGust SpeedPrecipitationEvents Conditions
12:53 AM 25.0°F 21.0°F 85% 30.36 in 10.0 miles WNW 6.9 mph - N/A   Clear
1:53 AM 23.0°F 19.0°F 85% 30.36 in 9.0 miles WNW 8.1 mph - N/A   Clear
2:53 AM 25.0°F 21.9°F 88% 30.35 in 10.0 miles West 6.9 mph - N/A   Clear
3:53 AM 23.0°F 19.0°F 85% 30.34 in 10.0 miles West 4.6 mph - N/A   Clear
4:53 AM 21.9°F 18.0°F 85% 30.34 in 10.0 miles WNW 4.6 mph - N/A   Clear
5:53 AM 21.9°F 18.0°F 85% 30.34 in 10.0 miles West 3.5 mph - N/A   Clear
6:53 AM 24.1°F 19.9°F 84% 30.33 in 10.0 miles West 8.1 mph - N/A   Clear
7:53 AM 26.1°F 21.9°F 84% 30.33 in 10.0 miles West 4.6 mph - N/A   Partly Cloudy
8:53 AM 32.0°F 26.1°F 79% 30.32 in 10.0 miles WSW 5.8 mph - N/A   Partly Cloudy
9:53 AM 37.0°F 28.9°F 73% 30.32 in 10.0 miles West 6.9 mph - N/A   Partly Cloudy
10:53 AM 39.9°F 30.0°F 68% 30.30 in 10.0 miles NNW 8.1 mph - N/A   Partly Cloudy
11:53 AM 42.1°F 28.9°F 60% 30.28 in 10.0 miles North 6.9 mph - N/A   Clear
12:53 PM 44.1°F 28.9°F 55% 30.25 in 10.0 miles North 8.1 mph - N/A   Partly Cloudy
1:53 PM 44.1°F 28.0°F 53% 30.23 in 10.0 miles North 3.5 mph - N/A   Clear
2:53 PM 43.0°F 28.0°F 56% 30.22 in 10.0 miles Calm Calm - N/A   Scattered Clouds
3:53 PM 39.0°F 30.0°F 70% 30.23 in 10.0 miles ESE 4.6 mph - N/A   Mostly Cloudy
4:53 PM 36.0°F 28.0°F 73% 30.25 in 10.0 miles ENE 3.5 mph - N/A   Partly Cloudy
5:53 PM 33.1°F 27.0°F 78% 30.25 in 9.0 miles ENE 4.6 mph - N/A   Partly Cloudy
6:53 PM 30.9°F 27.0°F 85% 30.27 in 8.0 miles Calm Calm - N/A   Overcast
7:06 PM 32.0°F 26.6°F 80% 30.23 in 8.0 miles Calm Calm - N/A   Overcast
7:53 PM 33.1°F 28.0°F 82% 30.27 in 6.0 miles WSW 3.5 mph - N/A   Haze
8:53 PM 33.1°F 28.0°F 82% 30.27 in 8.0 miles West 3.5 mph - N/A   Overcast
9:53 PM 33.1°F 28.9°F 85% 30.28 in 6.0 miles Calm Calm - N/A   Overcast
10:53 PM 32.0°F 28.9°F 88% 30.27 in 6.0 miles West 3.5 mph - N/A   Overcast
11:53 PM 33.1°F 28.9°F 85% 30.28 in 8.0 miles WSW 4.6 mph - N/A   Overcast
Moon Phase
Nov. 26 Nov. 28 Dec. 06 Dec. 13 Dec. 20
Sunrise:07:20 AM (PST) Moon Rise:03:17 PM (PST)11/26
Sunset:04:18 PM (PST) Moon Set:05:31 AM (PST)11/26

Copyright © 2014 The Weather Underground, Inc.